Location: Gerlach
(40.6516°N, 119.3568°W)
Time: 16:21:13
(UTC-07:00)

ITAMSAT 1 - Pass Details

Date: 09 August 2024
Orbit: 782 x 795 km, 98.8° (Epoch: 14 September)

Event Time Altitude Azimuth Distance (km) Brightness Sun altitude
Exits shadow 22:22:35 15° 209° (SSW) 2,034 9.6 -22.8°
Maximum altitude 22:26:10 31° 264° (W) 1,369 9.2 -23.2°
Drops below altitude 10° 22:30:46 10° 325° (NW) 2,369 11.2 -23.8°
Sets 22:33:23 0° 336° (NNW) 3,304 12.1 -24.1°
